Location: Appleton
(44.2618°N, 88.4157°W)
Time: 01:27:24
(UTC+00:00)

Tiros 1 despin weight - Pass Details

Date: 06 March 2021
Orbit: 593 x 641 km, 48.2° (Epoch: 10 April)

Event Time Altitude Azimuth Distance (km) Brightness Sun altitude
Exits shadow 09:22:31 19° 116° (ESE) 1,519 ? -32.1°
Drops below altitude 10° 09:23:51 10° 116° (ESE) 2,026 ? -31.9°
Sets 09:26:11 0° 116° (ESE) 2,935 ? -31.5°
